Flag for Germany Weather past 2 weeks in Kaufbeuren, Bavaria, Germany

Now
50 °F

Cool.


Feels Like: 44 °F
Forecast: 32 / 57 °F
Wind: 18 mph from East

Location: Altenstadt Airport

Current Time: Apr 19, 2015 at 2:11:14 PM

Latest Report: Apr 19, 2015 at 1:20 PM


Visibility: N/A

Pressure: 30.07 "Hg

Humidity: 40%

Dew point: 27 °F

Location of KaufbeurenLocation

Historic Weather in Kaufbeuren — Graph

°F

Kaufbeuren temperature yesterday

Maximum temperature yesterday: 45 °F (at 1:20 PM)
Minimum temperature yesterday: 34 °F (at 11:20 PM)
Average temperature yesterday: 40 °F

Past Weeks' High & Low Weather Summary

 TemperatureHumidityPressure
High70 °F (Apr 15, 2:20 PM)100% (Apr 4, 12:20 PM)30.54 "Hg (Apr 4, 12:20 PM)
Low25 °F (Apr 6, 6:20 AM)21% (Apr 10, 1:20 PM)29.83 "Hg (Apr 4, 2:20 PM)
Average45 °F67%30.23 "Hg
* Reported Apr 4 12:20 PM — Apr 19 12:20 PM, Kaufbeuren, Weather by CustomWeather, © 2015

Note: Actual official high and low records may vary slightly from our data, if they occured in-between our weather recording intervals... More about our weather records

Advertising

Kaufbeuren weather history for previous 24 hours

 ConditionsComfort  
Time TempWeatherWind HumidityBarometerVisibility
12:20 PM
Sun, Apr 19
48 °FCool.17 mph43%30.07 "HgN/A
11:20 AM46 °FCool.20 mph46%30.07 "HgN/A
10:20 AM43 °FQuite cool.15 mph57%30.07 "HgN/A
9:20 AM39 °FChilly.12 mph65%30.07 "HgN/A
8:20 AM34 °FChilly.5 mph81%30.07 "HgN/A
7:20 AM30 °FChilly.9 mph86%30.09 "HgN/A
6:20 AM32 °FChilly.6 mph80%30.07 "HgN/A
5:20 AM30 °FChilly.7 mph86%30.09 "HgN/A
4:20 AM28 °FChilly.8 mph86%30.12 "HgN/A
3:20 AM32 °FChilly.5 mph80%30.12 "HgN/A
2:20 AM34 °FChilly.5 mph75%30.15 "HgN/A
1:20 AM34 °FChilly.5 mph70%30.15 "HgN/A
12:20 AM34 °FChilly.2 mph70%30.18 "HgN/A
11:20 PM
Sat, Apr 18
34 °FChilly.3 mph75%30.18 "HgN/A
10:20 PM36 °FChilly.2 mph75%30.18 "HgN/A
9:20 PM37 °FChilly.6 mph65%30.18 "HgN/A
8:20 PM39 °FChilly.3 mph65%30.18 "HgN/A
7:20 PM43 °FQuite cool.7 mph57%30.18 "HgN/A
6:20 PM45 °FQuite cool.8 mph46%30.18 "HgN/A
5:20 PM45 °FQuite cool.14 mph49%30.18 "HgN/A
4:20 PM45 °FQuite cool.9 mph49%30.18 "HgN/A
3:20 PM45 °FQuite cool.10 mph46%30.18 "HgN/A
2:20 PM43 °FQuite cool.8 mph49%30.18 "HgN/A
Weather by CustomWeather, © 2015

See weather overviewHow to use our weather pages